Location: Boda
(47.1872°N, 9.5454°E)
Time: 07:32:20
(UTC+00:00)

USA 81 - Pass Details

Date: 14 May 2021
Orbit: 784 x 789 km, 85.0° (Epoch: 12 June)

Event Time Altitude Azimuth Distance (km) Brightness Sun altitude
Rises 00:21:15 0° 349° (N) 3,297 8.3 -22.7°
Reaches altitude 10° 00:23:40 10° 345° (NNW) 2,363 7.3 -22.5°
Maximum altitude 00:28:46 50° 271° (W) 1,001 4.4 -22.3°
Enters shadow 00:29:42 44° 238° (WSW) 1,075 4.4 -22.2°
